TimeEST,TemperatureF,Dew PointF,Humidity,Sea Level PressureIn,VisibilityMPH,Wind Direction,Wind SpeedMPH,Gust SpeedMPH,PrecipitationIn,Events,Conditions,WindDirDegrees,DateUTC
12:13 AM,32.0,30.2,93,30.15,1.5,Calm,Calm,-,0.00,,Clear,0,2013-01-30 05:13:00
12:21 AM,32.0,30.2,93,30.14,1.2,SE,3.5,-,0.00,,Clear,130,2013-01-30 05:21:00
12:27 AM,32.0,30.2,93,30.14,1.0,Calm,Calm,-,0.00,,Mist,0,2013-01-30 05:27:00
12:44 AM,32.0,30.2,93,30.13,1.5,Calm,Calm,-,0.00,,Mostly Cloudy,0,2013-01-30 05:44:00
12:51 AM,32.0,31.1,96,30.89,1.8,Calm,Calm,-,0.01,,Mostly Cloudy,0,2013-01-30 05:51:00
1:40 AM,32.0,30.2,93,30.12,2.0,SE,3.5,-,0.01,,Clear,140,2013-01-30 06:40:00
1:51 AM,32.0,31.1,96,30.88,2.0,SE,3.5,-,0.01,,Partly Cloudy,130,2013-01-30 06:51:00
2:23 AM,32.0,30.2,93,30.10,1.8,ESE,4.6,-,N/A,,Mostly Cloudy,120,2013-01-30 07:23:00
2:39 AM,32.0,30.2,93,30.08,2.0,ESE,4.6,-,0.00,,Scattered Clouds,110,2013-01-30 07:39:00
2:51 AM,32.0,31.1,96,30.84,1.8,SE,4.6,-,0.01,,Mostly Cloudy,130,2013-01-30 07:51:00
3:02 AM,32.0,30.2,93,30.07,2.0,SE,3.5,-,0.00,,Mostly Cloudy,130,2013-01-30 08:02:00
3:16 AM,32.0,30.2,93,30.06,1.8,Calm,Calm,-,0.00,,Mostly Cloudy,0,2013-01-30 08:16:00
3:30 AM,32.0,30.2,93,30.05,1.2,ESE,3.5,-,0.00,,Mostly Cloudy,110,2013-01-30 08:30:00
3:37 AM,32.0,30.2,93,30.05,1.0,SE,3.5,-,0.00,,Mist,130,2013-01-30 08:37:00
3:51 AM,32.0,31.1,96,30.81,1.0,Calm,Calm,-,0.00,,Mist,0,2013-01-30 08:51:00
3:59 AM,33.8,32.0,93,30.04,0.8,Calm,Calm,-,N/A,,Mist,0,2013-01-30 08:59:00
4:06 AM,33.8,32.0,93,30.04,0.5,Calm,Calm,-,N/A,Fog,Fog,0,2013-01-30 09:06:00
4:18 AM,32.0,30.2,93,30.03,0.2,Calm,Calm,-,N/A,Fog,Fog,0,2013-01-30 09:18:00
4:51 AM,32.0,31.1,96,30.77,0.2,ESE,4.6,-,0.01,Fog,Fog,110,2013-01-30 09:51:00
5:21 AM,32.0,30.2,93,30.01,0.5,ESE,3.5,-,N/A,Fog,Fog,120,2013-01-30 10:21:00
5:51 AM,32.9,32.0,96,30.76,0.8,Calm,Calm,-,0.01,,Mist,0,2013-01-30 10:51:00
6:51 AM,32.9,32.0,96,30.73,0.8,Calm,Calm,-,0.01,,Mist,0,2013-01-30 11:51:00
7:04 AM,32.0,32.0,100,29.96,0.2,Calm,Calm,-,N/A,Fog,Fog,0,2013-01-30 12:04:00
7:22 AM,33.8,32.0,93,29.95,0.2,Calm,Calm,-,N/A,Fog,Fog,0,2013-01-30 12:22:00
7:41 AM,33.8,32.0,93,29.94,0.5,Calm,Calm,-,N/A,Fog,Fog,0,2013-01-30 12:41:00
7:51 AM,32.9,32.0,96,30.69,0.2,Calm,Calm,-,0.01,Fog,Fog,0,2013-01-30 12:51:00
8:51 AM,32.9,32.0,96,30.66,0.2,Calm,Calm,-,0.01,Fog,Fog,0,2013-01-30 13:51:00
9:02 AM,33.8,32.0,93,29.90,0.5,Calm,Calm,-,N/A,Fog,Fog,0,2013-01-30 14:02:00
9:51 AM,34.0,32.9,96,30.62,0.2,Calm,Calm,-,0.02,Fog,Fog,0,2013-01-30 14:51:00
10:25 AM,33.8,33.8,100,29.84,0.2,Calm,Calm,-,0.02,Fog,Fog,0,2013-01-30 15:25:00
10:51 AM,34.9,34.0,97,30.57,0.2,Calm,Calm,-,0.03,Fog,Fog,0,2013-01-30 15:51:00
11:51 AM,34.9,34.0,97,30.52,0.2,Calm,Calm,-,0.04,Fog,Fog,0,2013-01-30 16:51:00
12:51 PM,36.9,36.0,97,30.46,0.1,Calm,Calm,-,0.05,Fog,Fog,0,2013-01-30 17:51:00
1:51 PM,37.9,36.9,96,30.40,0.1,Calm,Calm,-,0.04,Fog,Fog,0,2013-01-30 18:51:00
1:58 PM,37.4,37.4,100,29.65,0.2,Calm,Calm,-,N/A,Fog,Fog,0,2013-01-30 18:58:00
2:51 PM,37.9,37.9,100,30.38,0.2,NNW,5.8,-,0.01,Fog,Fog,330,2013-01-30 19:51:00
3:08 PM,39.2,37.4,93,29.61,0.2,Calm,Calm,-,N/A,Fog,Fog,0,2013-01-30 20:08:00
3:11 PM,39.2,37.4,93,29.61,0.5,Calm,Calm,-,N/A,Fog,Fog,0,2013-01-30 20:11:00
3:20 PM,39.2,37.4,93,29.60,1.0,Calm,Calm,-,N/A,,Mostly Cloudy,0,2013-01-30 20:20:00
3:36 PM,39.2,37.4,93,29.60,1.5,Calm,Calm,-,N/A,,Overcast,0,2013-01-30 20:36:00
3:42 PM,37.4,37.4,100,29.59,1.0,ESE,3.5,-,0.00,,Overcast,120,2013-01-30 20:42:00
3:51 PM,43.0,41.9,96,30.33,0.8,SSE,5.8,-,0.00,,Overcast,150,2013-01-30 20:51:00
3:58 PM,46.4,46.4,100,29.59,1.0,Variable,4.6,-,N/A,,Overcast,0,2013-01-30 20:58:00
4:06 PM,50.0,48.2,94,29.58,1.5,Variable,5.8,-,N/A,,Overcast,0,2013-01-30 21:06:00
4:10 PM,51.8,50.0,94,29.58,3.0,South,5.8,-,N/A,,Overcast,170,2013-01-30 21:10:00
4:28 PM,53.6,51.8,94,29.59,6.0,Variable,6.9,-,N/A,,Scattered Clouds,0,2013-01-30 21:28:00
4:44 PM,53.6,53.6,100,29.60,6.0,South,8.1,-,0.00,Rain,Light Rain,190,2013-01-30 21:44:00
5:51 PM,54.9,52.9,93,30.31,10.0,Variable,5.8,-,0.01,,Mostly Cloudy,0,2013-01-30 22:51:00
6:51 PM,56.8,52.9,87,30.29,10.0,Variable,6.9,-,N/A,,Overcast,0,2013-01-30 23:51:00
7:51 PM,56.8,54.0,90,30.28,4.0,South,8.1,-,N/A,,Overcast,170,2013-01-31 00:51:00
8:51 PM,55.9,54.0,93,30.25,10.0,Variable,5.8,-,N/A,,Overcast,0,2013-01-31 01:51:00
9:51 PM,56.8,54.0,90,30.23,10.0,Variable,5.8,-,N/A,,Overcast,0,2013-01-31 02:51:00
10:51 PM,55.9,52.9,89,30.21,10.0,Variable,5.8,-,N/A,,Overcast,0,2013-01-31 03:51:00
11:15 PM,55.4,53.6,94,29.46,2.5,SE,5.8,-,0.00,Rain,Light Rain,140,2013-01-31 04:15:00
11:42 PM,55.4,53.6,94,29.44,3.0,Variable,4.6,-,0.01,Rain,Light Rain,0,2013-01-31 04:42:00
11:51 PM,55.9,54.0,93,30.16,3.0,Variable,6.9,-,0.01,Rain,Light Rain,0,2013-01-31 04:51:00